Dallas/Ft Worth, TX

9:34 AM CST on November 12, 2019 (GMT -0600)
Dallas-Fort Worth International

Weather History for KDFW - September, 2019

Change the Weather History Date:

Friday, September 20, 2019

  Actual Average Record
Temperature  
Mean Temperature 86 °F 76 °F  
Max Temperature 96 °F 87 °F 102 °F (1953)
Min Temperature 75 °F 66 °F 46 °F (1971)
Degree Days  
Heating Degree Days 0 0  
Month to date heating degree days 0 0  
Since 1 July heating degree days 0 0  
Cooling Degree Days 20 12  
Month to date cooling degree days 413 297  
Year to date cooling degree days 2615 2479  
Growing Degree Days 36 (Base 50)    
Moisture  
Dew Point 71 °F    
Average Humidity 69    
Maximum Humidity 88    
Minimum Humidity 36    
Precipitation  
Precipitation T in 0.08 in 3.00 in (1964)
Month to date precipitation T 1.78  
Year to date precipitation 27.13 25.89  
Sea Level Pressure  
Sea Level Pressure 29.90 in    
Wind  
Wind Speed 11 mph ()    
Max Wind Speed 28 mph    
Max Gust Speed 33 mph    
Visibility 10.0 miles    
Events Rain    
T = Trace of Precipitation, MM = Missing Value Source: Averaged Metar Reports

Daily Weather History Graph

Daily Weather History Graph

Search for Another Location

Airport or City:

Astronomy

Sep. 20, 2019 Rise Set
Actual Time 7:14 AM CDT 7:27 PM CDT
Civil Twilight 6:50 AM CDT 7:52 PM CDT
Nautical Twilight 6:21 AM CDT 8:21 PM CDT
Astronomical Twilight 5:52 AM CDT 8:50 PM CDT
Moon 11:37 PM CDT (9/20) 1:02 PM CDT (9/20)
Length of Visible Light 13h 02m
Length of Day
12h 12m
Waning Gibbous, 65% of the Moon is Illuminated
Sep 20
Waning Gibbous
Sep 21
Last Quarter
Sep 28
New
Oct 5
First Quarter
Oct 13
Full

Hourly Weather History & Observations

Time (CDT) Temp. Heat Index Dew Point Humidity Pressure Visibility Wind Dir Wind Speed Gust Speed Precip Events Conditions
12:53 AM 75.0 °F - 70.0 °F 84% 29.88 in 10.0 mi SE 4.6 mph - 0.00 in Rain Light Rain
1:53 AM 75.0 °F - 71.1 °F 87% 29.88 in 10.0 mi ESE 5.8 mph - 0.00 in   Overcast
2:23 AM 75.0 °F - 71.1 °F 87% 29.90 in 10.0 mi SSE 6.9 mph - N/A   Overcast
2:53 AM 75.9 °F - 71.1 °F 85% 29.87 in 10.0 mi South 8.1 mph - N/A   Mostly Cloudy
3:53 AM 75.9 °F - 72.0 °F 87% 29.86 in 10.0 mi SSE 10.4 mph - N/A   Mostly Cloudy
4:00 AM 75.9 °F - 72.0 °F 87% 29.88 in 9.0 mi SSE 11.5 mph - N/A   Overcast
4:53 AM 75.9 °F - 72.0 °F 87% 29.88 in 10.0 mi SSE 8.1 mph - N/A   Overcast
5:53 AM 75.9 °F - 72.0 °F 87% 29.88 in 10.0 mi South 12.7 mph - N/A   Overcast
6:53 AM 77.0 °F - 73.0 °F 88% 29.89 in 10.0 mi South 9.2 mph - N/A   Overcast
7:53 AM 78.1 °F - 73.0 °F 84% 29.89 in 10.0 mi South 11.5 mph - N/A   Overcast
8:53 AM 79.0 °F - 73.9 °F 84% 29.91 in 10.0 mi South 10.4 mph - N/A   Overcast
9:08 AM 79.0 °F - 73.9 °F 84% 29.94 in 10.0 mi South 9.2 mph - N/A   Overcast
9:53 AM 82.0 °F 87.4 °F 73.0 °F 74% 29.92 in 10.0 mi South 18.4 mph 26.5 mph N/A   Overcast
10:53 AM 84.0 °F 90.2 °F 73.0 °F 69% 29.94 in 10.0 mi South 15.0 mph - N/A   Mostly Cloudy
11:06 AM 84.0 °F 90.2 °F 73.0 °F 69% 29.96 in 10.0 mi South 13.8 mph - N/A   Mostly Cloudy
11:25 AM 86.0 °F 93.0 °F 73.0 °F 65% 29.96 in 10.0 mi South 13.8 mph - N/A   Mostly Cloudy
11:53 AM 87.1 °F 93.6 °F 72.0 °F 61% 29.92 in 10.0 mi South 17.3 mph - N/A   Mostly Cloudy
12:53 PM 91.9 °F 99.5 °F 72.0 °F 52% 29.89 in 10.0 mi South 17.3 mph 26.5 mph N/A   Mostly Cloudy
1:53 PM 93.0 °F 99.0 °F 70.0 °F 47% 29.87 in 10.0 mi South 21.9 mph 27.6 mph N/A   Mostly Cloudy
2:53 PM 93.0 °F 97.9 °F 69.1 °F 45% 29.84 in 10.0 mi South 18.4 mph 25.3 mph N/A   Mostly Cloudy
3:53 PM 95.0 °F 97.9 °F 66.0 °F 38% 29.83 in 10.0 mi South 20.7 mph 31.1 mph N/A   Mostly Cloudy
4:53 PM 93.9 °F 97.0 °F 66.0 °F 40% 29.84 in 10.0 mi South 20.7 mph 26.5 mph N/A   Mostly Cloudy
5:53 PM 93.0 °F 94.2 °F 63.0 °F 37% 29.84 in 10.0 mi South 15.0 mph 24.2 mph N/A   Mostly Cloudy
6:53 PM 89.1 °F 93.7 °F 69.1 °F 52% 29.87 in 10.0 mi SE 23.0 mph 28.8 mph N/A   Mostly Cloudy
7:53 PM 84.9 °F 89.4 °F 70.0 °F 61% 29.90 in 10.0 mi SE 17.3 mph 27.6 mph N/A   Mostly Cloudy
8:53 PM 84.0 °F 88.4 °F 70.0 °F 63% 29.91 in 10.0 mi SE 17.3 mph - N/A   Mostly Cloudy
9:53 PM 82.9 °F 87.5 °F 71.1 °F 67% 29.95 in 10.0 mi SSE 19.6 mph 29.9 mph N/A   Mostly Cloudy
10:53 PM 82.0 °F 85.5 °F 69.1 °F 65% 29.97 in 10.0 mi SSE 16.1 mph 28.8 mph N/A   Mostly Cloudy
11:53 PM 81.0 °F 84.1 °F 69.1 °F 67% 29.98 in 10.0 mi South 17.3 mph - N/A   Mostly Cloudy